Total_Precipitation_Accumulation
0.53 0.39 0.39 0.46 0.44 0.46 0.63 0.68 0.64 0.40 0.31 0.34 0.33 0.33 0.33 0.34 0.34 0.34 0.33 0.39 0.43 0.46 0.49 0.56 0.60 0.61 0.68 0.75 0.76 0.85 0.95 0.92 0.90 0.96 0.98 0.96 1.02 1.05 1.12 1.21 1.22 1.19 1.14 1.14
0.60 0.38 0.35 0.37 0.32 0.34 0.40 0.40 0.38 0.30 0.32 0.32 0.30 0.29 0.27 0.29 0.36 0.36 0.38 0.44 0.47 0.48 0.53 0.62 0.70 0.79 0.88 0.94 0.95 0.98 1.08 1.09 0.98 0.94 0.95 0.97 0.99 1.01 1.04 1.09 1.12 1.11 1.08 1.07
0.85 0.47 0.62 0.66 0.42 0.38 0.39 0.40 0.39 0.40 0.38 0.30 0.28 0.27 0.29 0.30 0.34 0.39 0.40 0.43 0.47 0.50 0.57 0.67 0.80 0.94 1.06 1.05 1.01 1.06 1.10 1.17 1.12 1.00 0.93 0.94 0.94 0.94 0.94 0.96 1.01 1.01 1.01 1.03
1.19 0.87 1.11 0.62 0.32 0.33 0.34 0.37 0.39 0.38 0.35 0.32 0.32 0.28 0.26 0.27 0.31 0.36 0.42 0.48 0.52 0.59 0.61 0.69 0.82 0.96 1.05 1.08 1.06 1.11 1.15 1.12 1.09 0.99 0.89 0.90 0.93 0.90 0.84 0.85 0.90 0.94 0.95 0.97
1.49 1.14 0.66 0.28 0.22 0.32 0.40 0.44 0.41 0.38 0.33 0.30 0.28 0.24 0.25 0.27 0.29 0.35 0.43 0.49 0.55 0.60 0.62 0.66 0.74 0.87 0.93 0.96 0.95 1.00 1.06 1.04 1.01 0.96 0.91 0.93 0.97 0.92 0.84 0.83 0.85 0.85 0.86 0.90
1.64 1.30 0.66 0.30 0.18 0.24 0.38 0.51 0.37 0.34 0.35 0.35 0.35 0.50 0.38 0.32 0.29 0.29 0.31 0.36 0.46 0.54 0.52 0.55 0.65 0.71 0.76 0.82 0.82 0.84 0.89 0.93 0.97 0.92 0.90 0.94 0.97 0.94 0.90 0.87 0.90 0.92 0.91 0.94
1.40 1.23 0.56 0.26 0.16 0.22 0.54 0.65 0.39 0.36 0.38 0.43 0.54 0.61 0.43 0.33 0.30 0.30 0.30 0.31 0.35 0.44 0.52 0.58 0.67 0.70 0.72 0.75 0.78 0.77 0.77 0.80 0.90 0.92 0.89 0.91 0.94 0.97 0.97 0.96 0.98 1.01 0.99 0.98
1.10 1.31 0.70 0.26 0.25 0.46 0.64 0.43 0.37 0.37 0.41 0.49 0.46 0.35 0.31 0.31 0.32 0.30 0.29 0.30 0.34 0.42 0.52 0.62 0.67 0.67 0.65 0.72 0.75 0.71 0.74 0.76 0.81 0.89 0.87 0.89 0.92 0.91 0.90 0.97 1.04 1.07 1.06 1.04
0.84 0.77 0.47 0.35 0.42 0.46 0.44 0.45 0.44 0.52 0.53 0.51 0.47 0.41 0.38 0.35 0.32 0.32 0.32 0.33 0.37 0.43 0.51 0.59 0.61 0.61 0.65 0.72 0.72 0.70 0.72 0.76 0.81 0.87 0.87 0.85 0.86 0.88 0.85 0.86 0.95 1.03 1.05 1.07
0.61 0.46 0.35 0.31 0.29 0.28 0.32 0.41 0.46 0.49 0.51 0.53 0.56 0.49 0.44 0.42 0.40 0.38 0.38 0.38 0.40 0.42 0.49 0.54 0.53 0.57 0.67 0.72 0.71 0.69 0.76 0.81 0.84 0.89 0.92 0.88 0.82 0.82 0.83 0.88 1.03 1.13 1.11 1.09
0.48 0.37 0.31 0.29 0.29 0.31 0.33 0.34 0.33 0.34 0.38 0.50 0.57 0.53 0.45 0.44 0.47 0.48 0.48 0.46 0.46 0.48 0.53 0.52 0.47 0.50 0.62 0.71 0.73 0.74 0.75 0.81 0.86 0.90 0.92 0.90 0.85 0.85 0.89 0.92 1.14 1.42 1.37 1.32
0.45 0.35 0.36 0.36 0.32 0.33 0.36 0.36 0.36 0.37 0.39 0.41 0.46 0.47 0.42 0.44 0.47 0.48 0.51 0.53 0.51 0.49 0.48 0.47 0.44 0.45 0.54 0.63 0.70 0.73 0.74 0.77 0.84 0.92 0.94 0.90 0.85 0.88 0.92 0.93 1.03 1.07 1.11 1.24
0.36 0.31 0.31 0.30 0.28 0.28 0.31 0.34 0.38 0.41 0.41 0.38 0.37 0.39 0.43 0.48 0.48 0.48 0.50 0.51 0.50 0.47 0.46 0.48 0.45 0.46 0.53 0.61 0.66 0.71 0.76 0.78 0.81 0.86 0.89 0.89 0.86 0.84 0.87 0.87 0.88 0.91 0.95 1.03
0.27 0.27 0.30 0.25 0.25 0.24 0.25 0.27 0.30 0.34 0.34 0.32 0.33 0.34 0.38 0.44 0.44 0.42 0.44 0.46 0.46 0.44 0.44 0.45 0.43 0.46 0.51 0.56 0.60 0.67 0.74 0.79 0.82 0.85 0.88 0.87 0.87 0.86 0.83 0.83 0.85 0.88 0.89 0.93
0.21 0.25 0.29 0.25 0.22 0.22 0.23 0.24 0.26 0.28 0.28 0.28 0.28 0.31 0.35 0.39 0.43 0.45 0.43 0.41 0.40 0.40 0.42 0.41 0.41 0.43 0.45 0.48 0.52 0.58 0.64 0.71 0.77 0.81 0.84 0.84 0.85 0.84 0.83 0.80 0.80 0.83 0.85 0.91
0.21 0.22 0.22 0.23 0.24 0.26 0.26 0.24 0.26 0.28 0.26 0.27 0.28 0.30 0.32 0.35 0.37 0.38 0.38 0.37 0.36 0.40 0.43 0.41 0.41 0.43 0.43 0.45 0.47 0.50 0.57 0.68 0.75 0.77 0.78 0.81 0.83 0.84 0.85 0.85 0.85 0.84 0.87 0.95
0.26 0.25 0.25 0.29 0.29 0.31 0.33 0.33 0.30 0.28 0.24 0.23 0.24 0.26 0.27 0.28 0.30 0.31 0.34 0.37 0.37 0.39 0.42 0.42 0.43 0.40 0.40 0.42 0.47 0.50 0.54 0.61 0.68 0.70 0.73 0.78 0.84 0.89 0.90 0.91 0.92 0.89 0.88 0.93
0.31 0.33 0.35 0.39 0.39 0.37 0.36 0.32 0.29 0.27 0.25 0.24 0.24 0.25 0.26 0.27 0.29 0.30 0.32 0.33 0.32 0.33 0.36 0.40 0.43 0.39 0.37 0.41 0.49 0.52 0.57 0.62 0.65 0.69 0.73 0.79 0.86 0.88 0.89 0.90 0.90 0.88 0.86 0.88
0.28 0.31 0.33 0.36 0.38 0.39 0.37 0.33 0.30 0.30 0.29 0.28 0.28 0.29 0.30 0.31 0.32 0.32 0.32 0.31 0.30 0.32 0.35 0.36 0.38 0.35 0.35 0.41 0.53 0.57 0.61 0.66 0.67 0.66 0.70 0.80 0.83 0.80 0.83 0.86 0.88 0.85 0.83 0.85
0.30 0.31 0.33 0.34 0.35 0.36 0.36 0.32 0.30 0.30 0.32 0.32 0.33 0.34 0.35 0.35 0.35 0.35 0.34 0.35 0.37 0.41 0.37 0.36 0.34 0.35 0.40 0.47 0.60 0.64 0.67 0.70 0.72 0.71 0.72 0.74 0.77 0.78 0.80 0.83 0.85 0.86 0.85 0.86
0.35 0.34 0.34 0.34 0.34 0.33 0.32 0.31 0.30 0.31 0.32 0.33 0.33 0.36 0.37 0.38 0.38 0.37 0.36 0.37 0.39 0.38 0.37 0.37 0.37 0.47 0.57 0.66 0.70 0.69 0.68 0.71 0.74 0.76 0.78 0.80 0.81 0.78 0.79 0.82 0.85 0.87 0.87 0.87
0.35 0.36 0.37 0.36 0.32 0.33 0.33 0.32 0.32 0.32 0.32 0.33 0.34 0.36 0.38 0.39 0.39 0.39 0.39 0.43 0.47 0.47 0.42 0.41 0.50 0.70 0.75 0.76 0.69 0.69 0.68 0.68 0.71 0.74 0.79 0.84 0.88 0.88 0.85 0.86 0.91 0.90 0.89 0.91
0.36 0.38 0.40 0.39 0.36 0.36 0.35 0.35 0.35 0.34 0.35 0.36 0.36 0.37 0.40 0.42 0.42 0.44 0.51 0.50 0.49 0.51 0.48 0.49 0.63 0.73 0.74 0.69 0.65 0.66 0.67 0.69 0.72 0.76 0.81 0.86 0.90 0.93 0.96 0.94 0.93 0.94 0.96 0.96
0.41 0.43 0.43 0.42 0.37 0.35 0.38 0.40 0.38 0.38 0.38 0.40 0.41 0.42 0.42 0.44 0.45 0.46 0.52 0.54 0.52 0.51 0.50 0.56 0.64 0.67 0.65 0.62 0.63 0.65 0.69 0.74 0.80 0.82 0.84 0.87 0.89 0.92 0.96 0.98 0.99 0.95 0.95 0.97
0.47 0.46 0.44 0.41 0.39 0.40 0.42 0.42 0.40 0.40 0.39 0.41 0.44 0.44 0.44 0.44 0.49 0.51 0.50 0.50 0.50 0.50 0.51 0.54 0.58 0.59 0.58 0.60 0.64 0.68 0.74 0.81 0.89 0.93 0.93 0.92 0.90 0.92 0.94 0.98 1.03 1.03 1.00 0.98
0.51 0.51 0.48 0.46 0.44 0.43 0.44 0.42 0.43 0.43 0.40 0.41 0.43 0.42 0.42 0.42 0.44 0.45 0.47 0.49 0.49 0.49 0.50 0.51 0.52 0.55 0.57 0.60 0.64 0.69 0.75 0.81 0.83 0.83 0.82 0.85 0.85 0.88 0.92 0.96 1.00 1.02 1.02 1.00
0.50 0.47 0.43 0.40 0.40 0.40 0.40 0.40 0.42 0.45 0.44 0.42 0.44 0.42 0.39 0.39 0.40 0.41 0.43 0.46 0.48 0.49 0.50 0.52 0.54 0.57 0.58 0.60 0.63 0.68 0.72 0.75 0.79 0.82 0.82 0.82 0.84 0.87 0.90 0.95 0.98 0.99 1.00 0.99